Flag for U.S.A. Weather past 2 weeks in Moreno Valley, California, U.S.A.

Now
56 °F

Clear.


Feels Like: 56 °F
Forecast: 58 / 86 °F
Wind: No wind

Location: Riverside / March Air Force Base

Current Time: Sep 30, 2014 at 5:37:15 AM

Latest Report: Sep 30, 2014 at 4:58 AM


Visibility: 10 mi

Pressure: 29.87 "Hg

Humidity: 80%

Dew point: 49 °F

Location of Moreno ValleyLocation

Historic Weather in Moreno Valley — Graph

°F

Moreno Valley temperature yesterday

Maximum temperature yesterday: 81 °F (at 4:58 PM)
Minimum temperature yesterday: 55 °F (at 5:58 AM)
Average temperature yesterday: 67 °F

Past Weeks' High & Low Weather Summary

 TemperatureHumidityPressure
High106 °F (Sep 15, 1:58 PM)95% (Sep 29, 6:58 AM)30.02 "Hg (Sep 29, 6:58 AM)
Low55 °F (Sep 23, 6:58 AM)10% (Sep 25, 9:58 AM)29.68 "Hg (Sep 17, 4:58 PM)
Average75 °F54%29.86 "Hg
* Reported Sep 15 3:58 AM — Sep 30 3:58 AM, Moreno Valley, Weather by CustomWeather, © 2014

Note: Actual official high and low records may vary slightly from our data, if they occured in-between our weather recording intervals... More about our weather records

Advertising

Moreno Valley weather history for previous 24 hours

 ConditionsComfort  
Time TempWeatherWind HumidityBarometerVisibility
3:58 AM
Sep 30
57 °FClear.No wind78%29.87 "Hg10 mi
2:58 AM57 °FClear.2 mph76%29.88 "Hg10 mi
1:58 AM58 °FClear.No wind70%29.88 "Hg10 mi
12:58 AM59 °FClear.No wind71%29.88 "Hg10 mi
11:58 PM
Sep 29
61 °FClear.3 mph72%29.89 "Hg10 mi
10:58 PM64 °FClear.2 mph69%29.88 "Hg10 mi
9:58 PM66 °FClear.8 mph63%29.88 "Hg10 mi
8:58 PM69 °FClear.6 mph57%29.87 "Hg10 mi
7:58 PM72 °FClear.6 mph46%29.85 "Hg10 mi
6:58 PM75 °FSunny.7 mph43%29.84 "Hg10 mi
5:58 PM79 °FSunny.9 mph37%29.85 "Hg10 mi
4:58 PM81 °FSunny.6 mph30%29.85 "Hg10 mi
3:58 PM81 °FSunny.8 mph30%29.85 "Hg10 mi
2:58 PM80 °FSunny.10 mph33%29.85 "Hg10 mi
1:58 PM80 °FSunny.9 mph35%29.87 "Hg10 mi
12:58 PM78 °FSunny.12 mph42%29.89 "Hg10 mi
11:58 AM75 °FSunny.6 mph46%29.90 "Hg10 mi
10:58 AM70 °FSunny.1 mph54%29.91 "Hg10 mi
9:58 AM66 °FSunny.No wind68%29.93 "Hg10 mi
8:58 AM63 °FPassing clouds.3 mph79%29.94 "Hg10 mi
7:58 AM59 °FPassing clouds.2 mph93%29.93 "Hg10 mi
6:58 AM56 °FClear.2 mph95%29.92 "Hg10 mi
5:58 AM55 °FClear.No wind93%29.90 "Hg10 mi
Weather by CustomWeather, © 2014

See weather overviewHow to use our weather pages